Owosso, MI

4:17 AM EDT on September 30, 2016 (GMT -0400)
Owosso

Weather History for KRNP - January, 2013

Change the Weather History Date:

Friday, January 25, 2013

  Actual Average (KFNT) Record (KFNT)
Temperature  
Mean Temperature 16 °F 22 °F  
Max Temperature 21 °F 29 °F 65 °F (1950)
Min Temperature 12 °F 15 °F -16 °F (2004)
Degree Days  
Heating Degree Days 48 43  
Month to date heating degree days 1064  
Since 1 July heating degree days 3709  
Cooling Degree Days 0 0  
Month to date cooling degree days 0  
Year to date cooling degree days 0  
Moisture  
Dew Point 10 °F    
Average Humidity 72    
Maximum Humidity 86    
Minimum Humidity 56    
Precipitation  
Precipitation 0.00 in 0.05 in 0.42 in (1950)
Month to date precipitation 1.35  
Year to date precipitation 1.35  
Snow  
Snow 0.00 in 0.50 in 4.50 in (1928)
Month to date snowfall 10.7  
Since 1 July snowfall 25.4  
Snow Depth -    
Sea Level Pressure  
Sea Level Pressure 30.15 in    
Wind  
Wind Speed 4 mph (SSE)    
Max Wind Speed 12 mph    
Max Gust Speed -    
Visibility 7 miles    
Events Snow    
T = Trace of Precipitation, MM = Missing Value Source: NWS Daily Summary

Daily Weather History Graph

Daily Weather History Graph

Search for Another Location

Airport or City:

Trip Planner

Search our weather history database for the weather conditions in past years. The results will help you decide how hot, cold, wet, or windy it might be!

Date:

Astronomy

Jan. 25, 2013 Rise Set
Actual Time 7:58 AM EST 5:40 PM EST
Civil Twilight 7:27 AM EST 6:10 PM EST
Nautical Twilight 6:53 AM EST 6:45 PM EST
Astronomical Twilight 6:19 AM EST 7:18 PM EST
Moon 4:36 PM EST (1/25) 6:37 AM EST (1/25)
Length of Visible Light 10h 43m
Length of Day
9h 42m
Waxing Gibbous, 98% of the Moon is Illuminated
Jan 25
Waxing Gibbous
Jan 26
Full
Feb 3
Last Quarter
Feb 10
New
Feb 17
First Quarter

Hourly Weather History & Observations

Time (EST) Temp. Windchill Dew Point Humidity Pressure Visibility Wind Dir Wind Speed Gust Speed Precip Events Conditions
12:14 AM 12.7 °F - -0.4 °F 56% 30.47 in 10.0 mi Calm Calm - N/A   Overcast
12:35 AM 12.9 °F 6.9 °F 0.1 °F 57% 30.46 in 10.0 mi SE 3.5 mph - N/A   Overcast
12:55 AM 12.9 °F - 0.5 °F 58% 30.45 in 10.0 mi Calm Calm - N/A   Overcast
1:14 AM 13.1 °F - 0.5 °F 57% 30.44 in 10.0 mi Calm Calm - N/A   Overcast
1:35 AM 13.3 °F - 1.4 °F 59% 30.44 in 10.0 mi Calm Calm - N/A   Overcast
1:55 AM 13.5 °F 5.8 °F 1.4 °F 59% 30.44 in 10.0 mi SSE 4.6 mph - N/A   Overcast
2:14 AM 13.5 °F 7.5 °F 0.9 °F 57% 30.42 in 10.0 mi SE 3.5 mph - N/A   Overcast
2:35 AM 13.6 °F 7.7 °F 1.2 °F 58% 30.40 in 10.0 mi SE 3.5 mph - N/A   Overcast
2:55 AM 13.8 °F 6.2 °F 0.9 °F 56% 30.39 in 10.0 mi SE 4.6 mph - N/A   Overcast
3:15 AM 13.8 °F 4.9 °F 1.2 °F 57% 30.37 in 10.0 mi SE 5.8 mph - N/A   Overcast
3:35 AM 14.0 °F 8.2 °F 1.4 °F 57% 30.37 in 10.0 mi SE 3.5 mph - N/A   Overcast
3:55 AM 14.0 °F 8.2 °F 2.3 °F 60% 30.37 in 10.0 mi SSE 3.5 mph - N/A   Overcast
4:15 AM 14.4 °F 8.6 °F 2.5 °F 59% 30.35 in 10.0 mi SE 3.5 mph - N/A   Overcast
4:35 AM 14.4 °F - 3.2 °F 61% 30.33 in 10.0 mi Calm Calm - N/A   Overcast
4:54 AM 14.5 °F 8.8 °F 3.0 °F 60% 30.32 in 10.0 mi SE 3.5 mph - N/A   Overcast
5:15 AM 14.7 °F - 3.7 °F 62% 30.31 in 10.0 mi Calm Calm - N/A   Overcast
5:35 AM 14.9 °F 9.2 °F 4.3 °F 63% 30.29 in 10.0 mi SE 3.5 mph - N/A   Overcast
5:54 AM 14.9 °F 9.2 °F 4.6 °F 64% 30.28 in 10.0 mi SE 3.5 mph - N/A   Overcast
6:15 AM 15.3 °F 6.6 °F 5.9 °F 67% 30.26 in 10.0 mi ESE 5.8 mph - N/A   Overcast
6:35 AM 15.4 °F 6.8 °F 6.6 °F 68% 30.25 in 10.0 mi ESE 5.8 mph - N/A   Overcast
6:54 AM 15.4 °F 5.6 °F 7.7 °F 71% 30.24 in 3.0 mi SE 6.9 mph - N/A Snow Light Snow
7:15 AM 15.4 °F 5.6 °F 8.8 °F 75% 30.23 in 2.5 mi ESE 6.9 mph - N/A Snow Light Snow
7:35 AM 15.4 °F 8.1 °F 9.3 °F 77% 30.22 in 3.0 mi SSE 4.6 mph - N/A Snow Light Snow
7:55 AM 15.6 °F 7.0 °F 9.5 °F 77% 30.21 in 5.0 mi SE 5.8 mph - N/A Snow Light Snow
8:35 AM 16.2 °F 6.5 °F 9.9 °F 76% 30.19 in 3.0 mi SE 6.9 mph - N/A Snow Light Snow
8:55 AM 16.3 °F 7.8 °F 10.0 °F 76% 30.19 in 7.0 mi SE 5.8 mph - N/A   Overcast
9:15 AM 16.5 °F 8.1 °F 10.2 °F 76% 30.17 in 10.0 mi SE 5.8 mph - N/A   Overcast
9:34 AM 16.7 °F 8.3 °F 10.4 °F 76% 30.17 in 7.0 mi SE 5.8 mph - N/A   Overcast
9:55 AM 17.2 °F 8.9 °F 10.9 °F 76% 30.16 in 1.8 mi SE 5.8 mph - N/A Snow Light Snow
10:14 AM 17.4 °F 8.0 °F 11.7 °F 78% 30.15 in 1.0 mi ESE 6.9 mph - N/A Snow Light Snow
10:35 AM 17.6 °F 7.3 °F 12.2 °F 79% 30.14 in 1.0 mi SE 8.1 mph - N/A Snow Light Snow
10:55 AM 18.5 °F 9.3 °F 12.4 °F 77% 30.13 in 1.8 mi SSE 6.9 mph - N/A Snow Light Snow
11:14 AM 19.2 °F 10.2 °F 12.7 °F 76% 30.13 in 2.5 mi SSE 6.9 mph - N/A Snow Light Snow
11:35 AM 19.4 °F 9.5 °F 12.9 °F 76% 30.12 in 2.0 mi SE 8.1 mph - N/A Snow Light Snow
11:55 AM 19.6 °F 8.9 °F 12.7 °F 75% 30.11 in 2.0 mi SSE 9.2 mph - N/A Snow Light Snow
12:14 PM 20.1 °F 9.5 °F 12.9 °F 74% 30.09 in 1.8 mi SE 9.2 mph - N/A Snow Light Snow
12:35 PM 20.8 °F 12.1 °F 12.9 °F 71% 30.07 in 4.0 mi SSE 6.9 mph - N/A Snow Light Snow
12:55 PM 20.8 °F 11.2 °F 11.8 °F 68% 30.06 in 7.0 mi SSE 8.1 mph - N/A Snow Light Snow
1:15 PM 21.2 °F 10.9 °F 11.8 °F 67% 30.06 in 7.0 mi SSE 9.2 mph - N/A   Overcast
1:35 PM 21.6 °F 9.9 °F 11.5 °F 65% 30.04 in 7.0 mi South 11.5 mph - N/A Snow Light Snow
2:15 PM 21.9 °F 12.5 °F 11.1 °F 63% 30.02 in 10.0 mi SSE 8.1 mph - N/A   Overcast
2:35 PM 21.6 °F 14.0 °F 12.0 °F 67% 30.01 in 2.0 mi SSE 5.8 mph - N/A Snow Light Snow
2:54 PM 21.4 °F 12.8 °F 12.6 °F 69% 30.00 in 5.0 mi SSE 6.9 mph - N/A Snow Light Snow
3:15 PM 21.6 °F 13.0 °F 12.7 °F 69% 30.00 in 7.0 mi South 6.9 mph - N/A Snow Light Snow
3:35 PM 21.6 °F 13.0 °F 12.4 °F 68% 29.99 in 10.0 mi SSE 6.9 mph - N/A   Overcast
3:54 PM 21.6 °F 12.1 °F 12.6 °F 68% 29.99 in 7.0 mi South 8.1 mph - N/A Snow Light Snow
4:15 PM 21.6 °F 14.0 °F 12.4 °F 68% 29.99 in 10.0 mi SSE 5.8 mph - N/A Snow Light Snow
4:35 PM 21.6 °F 15.3 °F 12.7 °F 69% 29.98 in 7.0 mi SSE 4.6 mph - N/A Snow Light Snow
4:55 PM 21.6 °F 16.8 °F 12.9 °F 69% 29.98 in 10.0 mi SSE 3.5 mph - N/A   Overcast
5:15 PM 21.2 °F 16.4 °F 13.3 °F 72% 29.99 in 7.0 mi SE 3.5 mph - N/A Snow Light Snow
5:34 PM 21.2 °F 16.4 °F 13.6 °F 73% 29.99 in 7.0 mi SSE 3.5 mph - N/A Snow Light Snow
5:55 PM 21.2 °F 14.9 °F 14.0 °F 74% 30.00 in 4.0 mi South 4.6 mph - N/A Snow Light Snow
6:15 PM 20.8 °F 16.0 °F 14.9 °F 78% 30.00 in 1.8 mi SSE 3.5 mph - N/A Snow Light Snow
6:35 PM 20.3 °F 15.4 °F 15.1 °F 80% 30.00 in 4.0 mi SSE 3.5 mph - N/A Snow Light Snow
6:55 PM 20.3 °F - 15.4 °F 81% 30.00 in 5.0 mi Calm Calm - N/A Snow Light Snow
7:15 PM 20.3 °F - 15.4 °F 81% 30.00 in 2.0 mi Calm Calm - N/A Snow Light Snow
7:35 PM 20.3 °F 15.4 °F 15.8 °F 83% 30.00 in 3.0 mi SE 3.5 mph - N/A Snow Light Snow
7:55 PM 20.1 °F 12.3 °F 16.2 °F 85% 29.99 in 4.0 mi SE 5.8 mph - N/A Snow Light Snow
8:14 PM 19.9 °F 13.4 °F 15.8 °F 84% 29.99 in 7.0 mi SE 4.6 mph - N/A   Overcast
8:35 PM 20.1 °F 13.6 °F 15.8 °F 83% 30.00 in 7.0 mi SE 4.6 mph - N/A   Overcast
8:55 PM 20.1 °F 15.2 °F 15.6 °F 83% 30.00 in 7.0 mi SSE 3.5 mph - N/A   Overcast
9:14 PM 20.1 °F 13.6 °F 15.6 °F 83% 30.00 in 7.0 mi SE 4.6 mph - N/A Snow Light Snow
9:35 PM 20.1 °F - 15.8 °F 83% 30.00 in 3.0 mi Calm Calm - N/A Snow Light Snow
9:55 PM 20.1 °F - 16.2 °F 85% 30.00 in 3.0 mi Calm Calm - N/A Snow Light Snow
10:14 PM 20.3 °F 15.4 °F 16.5 °F 85% 30.00 in 4.0 mi SSE 3.5 mph - N/A Snow Light Snow
10:35 PM 20.3 °F - 16.7 °F 86% 30.00 in 5.0 mi Calm Calm - N/A Snow Light Snow
10:55 PM 20.3 °F - 16.7 °F 86% 30.00 in 7.0 mi Calm Calm - N/A Snow Light Snow
11:15 PM 20.3 °F - 16.5 °F 85% 30.01 in 10.0 mi Calm Calm - N/A   Overcast
11:35 PM 20.7 °F - 16.7 °F 85% 30.01 in 10.0 mi Calm Calm - N/A   Overcast
11:55 PM 20.8 °F 16.0 °F 16.7 °F 84% 30.01 in 10.0 mi South 3.5 mph - N/A   Overcast